Sigfox identifier Datetime Temperature Humidity SNR
003938C3 2018-10-09 08:30:34 21.4 39 18.6
003938C3 2018-10-09 06:21:19 21.4 38 18.4
003938C3 2018-10-09 05:16:43 21.4 38 18.3
003938C3 2018-10-09 00:58:01 21.4 37 18.2
003938C3 2018-10-08 23:53:21 21.5 36 18
003938C3 2018-10-08 22:48:45 21.5 36 20.1
003938C3 2018-10-08 20:39:25 21.5 36 20.2
003938C3 2018-10-08 19:34:43 21.6 35 20
003938C3 2018-10-08 18:30:03 21.7 35 20
003938C3 2018-10-08 17:25:24 21.7 35 20
003938C3 2018-10-08 14:11:19 21.4 34 20
003938C3 2018-10-08 13:06:39 21.4 33 19.9
003938C3 2018-10-08 12:01:59 21.3 33 20
003938C3 2018-10-08 10:57:22 21.2 33 19.9
003938C3 2018-10-08 09:52:42 21 34 19.9
003938C3 2018-10-08 08:48:04 21 34 19.9
003938C3 2018-10-08 07:43:23 21 34 17.6
003938C3 2018-10-08 06:38:42 20.9 34 17.7
003938C3 2018-10-08 05:34:07 21 35 17.5
003938C3 2018-10-08 04:29:24 20.9 35 17.5
003938C3 2018-10-08 03:24:43 21 35 17.6
003938C3 2018-10-08 02:20:01 21 36 17.7
003938C3 2018-10-08 01:15:21 21 36 17.8
003938C3 2018-10-08 00:10:40 21 36 18
003938C3 2018-10-07 23:06:01 21 36 18
003938C3 2018-10-07 22:01:25 21 37 18
003938C3 2018-10-07 20:56:45 21 37 18
003938C3 2018-10-07 19:52:10 21.1 37 17.9
003938C3 2018-10-07 18:47:28 21.1 37 18
003938C3 2018-10-07 17:42:49 21.1 37 18.2
003938C3 2018-10-07 16:38:08 21 37 14.5
003938C3 2018-10-07 15:33:27 21.1 37 14.2
003938C3 2018-10-07 14:28:46 21.1 37 14.2
003938C3 2018-10-07 13:24:04 21.1 37 14.4
003938C3 2018-10-07 12:19:21 21 37 14.4
003938C3 2018-10-07 11:14:41 21.1 37 14.5
003938C3 2018-10-07 10:10:01 21.1 37 14.4
003938C3 2018-10-07 09:05:23 21.2 37 14.1
003938C3 2018-10-07 08:00:40 21.2 38 14.4
003938C3 2018-10-07 06:55:57 21.2 38 14.4
003938C3 2018-10-07 05:51:19 21.2 38 14.5
003938C3 2018-10-07 04:46:34 21.2 38 14.5
003938C3 2018-10-07 03:41:55 21.2 38 14.4
003938C3 2018-10-07 02:37:14 21.3 38 14.4
003938C3 2018-10-07 01:32:34 21.3 38 14.3
003938C3 2018-10-07 00:27:56 21.3 38 14.3
003938C3 2018-10-06 23:23:13 21.3 38 14.2
003938C3 2018-10-06 22:18:29 21.3 38 14.4
003938C3 2018-10-06 21:13:48 21.3 38 14.3
003938C3 2018-10-06 20:09:08 21.3 38 14.6
003938C3 2018-10-06 19:04:31 21.3 38 15
003938C3 2018-10-06 17:59:55 21.3 38 15.3
003938C3 2018-10-06 16:55:17 21.3 38 15.5
003938C3 2018-10-06 15:50:42 21.3 38 16
003938C3 2018-10-06 14:46:04 21.3 38 16
003938C3 2018-10-06 13:41:30 21.3 38 16.4
003938C3 2018-10-06 12:36:49 21.3 38 16.7
003938C3 2018-10-06 11:32:12 21.3 39 16.8
003938C3 2018-10-06 10:27:33 21.3 39 16.8
003938C3 2018-10-06 09:22:53 21.4 39 16.8
003938C3 2018-10-06 08:18:14 21.4 39 17.1
003938C3 2018-10-06 07:13:35 21.4 39 17.4
003938C3 2018-10-06 06:09:00 21.4 40 17.4
003938C3 2018-10-06 05:04:24 21.5 40 17.4
003938C3 2018-10-06 03:59:45 21.5 40 17.9
003938C3 2018-10-06 02:55:06 21.5 40 18.1
003938C3 2018-10-06 01:50:26 21.5 40 18.2
003938C3 2018-10-06 00:45:48 21.5 40 18.2
003938C3 2018-10-05 23:41:11 21.7 41 18.4
003938C3 2018-10-05 22:36:34 21.7 41 18.4
003938C3 2018-10-05 21:31:55 21.7 41 18.4
003938C3 2018-10-05 20:27:19 21.8 41 18.6
003938C3 2018-10-05 19:22:39 21.9 41 18.8
003938C3 2018-10-05 18:18:02 21.9 41 19.1
003938C3 2018-10-05 17:13:25 21.9 41 19.1
003938C3 2018-10-05 16:08:49 21.9 40 18.9
003938C3 2018-10-05 15:04:13 21.9 40 19
003938C3 2018-10-05 13:59:37 21.9 40 18.9
003938C3 2018-10-05 12:54:58 21.8 39 18.7
003938C3 2018-10-05 11:50:18 21.7 40 18.6
003938C3 2018-10-05 10:45:38 21.5 36 18.3
003938C3 2018-10-05 09:40:59 21.3 34 18.3
003938C3 2018-10-05 08:36:20 21.1 32 18.5
003938C3 2018-10-05 07:31:38 21 29 18.4
003938C3 2018-10-05 06:27:01 21 29 18.6
003938C3 2018-10-05 05:22:24 21 28 18.4
003938C3 2018-10-05 04:17:50 21 28 18.5
003938C3 2018-10-05 03:13:12 21 28 18.6
003938C3 2018-10-05 02:08:35 21.1 29 18.5
003938C3 2018-10-05 01:03:58 21.2 29 18
003938C3 2018-10-04 23:59:19 21.3 29 17.9
003938C3 2018-10-04 22:54:42 21.3 29 18
003938C3 2018-10-04 21:50:01 21.4 29 18
003938C3 2018-10-04 20:45:24 21.4 28 17.9
003938C3 2018-10-04 19:40:47 21.4 28 18.4
003938C3 2018-10-04 18:36:09 21.4 28 18.4
003938C3 2018-10-04 17:31:31 21.4 28 18.1
003938C3 2018-10-04 16:26:55 21.3 28 17.7
003938C3 2018-10-04 15:22:16 21 28 17.1
003938C3 2018-10-04 14:17:42 21 29 16.9
003938C3 2018-10-04 13:13:01 21 29 16.9
003938C3 2018-10-04 12:08:22 21 30 16.6
003938C3 2018-10-04 11:03:48 20.8 30 16.6
003938C3 2018-10-04 09:59:07 20.7 31 19.2
003938C3 2018-10-04 08:54:29 20.6 32 19.2
003938C3 2018-10-04 07:49:51 20.6 34 19.6
003938C3 2018-10-04 06:45:14 20.6 35 19.8
003938C3 2018-10-04 05:40:36 20.6 36 19.7
003938C3 2018-10-04 04:35:57 20.6 37 19.9
003938C3 2018-10-04 03:31:18 20.6 37 19.8
003938C3 2018-10-04 02:26:40 20.6 38 19.9
003938C3 2018-10-04 01:22:03 20.6 38 19.8
003938C3 2018-10-04 00:17:26 20.7 39 19.8
003938C3 2018-10-03 23:12:51 20.8 39 19.8
003938C3 2018-10-03 22:08:12 20.8 39 20.2
003938C3 2018-10-03 21:03:31 20.8 40 20.1
003938C3 2018-10-03 19:58:50 20.8 40 20
003938C3 2018-10-03 18:54:08 20.8 40 20
003938C3 2018-10-03 17:49:26 20.8 41 20.1
003938C3 2018-10-03 16:44:48 20.8 43 19.9
003938C3 2018-10-03 15:40:09 21 46 20.1
003938C3 2018-10-03 14:35:29 20.8 43 20.3
003938C3 2018-10-03 13:30:49 20.6 43 20.5
003938C3 2018-10-03 12:26:14 20.6 40 20.7
003938C3 2018-10-03 11:21:32 20.6 42 20.9
003938C3 2018-10-03 10:16:53 20.6 41 21.1
003938C3 2018-10-03 09:12:13 20.4 41 21.4
003938C3 2018-10-03 08:07:32 20.4 38 21.6
003938C3 2018-10-03 07:02:51 20.4 39 19.2
003938C3 2018-10-03 05:58:14 20.4 40 19.5
003938C3 2018-10-03 04:53:34 20.4 40 18.9
003938C3 2018-10-03 03:48:52 20.6 40 18.2
003938C3 2018-10-03 02:44:09 20.6 40 18.3
003938C3 2018-10-03 01:39:25 20.6 41 18
003938C3 2018-10-03 00:34:42 20.6 41 18
003938C3 2018-10-02 23:30:01 20.6 40 17.6
003938C3 2018-10-02 22:25:20 20.6 40 17.8
003938C3 2018-10-02 21:20:41 20.7 40 17.5
003938C3 2018-10-02 20:15:57 20.6 40 18.3
003938C3 2018-10-02 19:11:17 20.8 40 12.9
003938C3 2018-10-02 18:06:36 20.8 39 13.8
003938C3 2018-10-02 17:01:54 20.9 42 14.3
003938C3 2018-10-02 15:57:10 20.4 49 0